Simultaneous Nadir Overpasses (SNOs) Predictions

Prediction of SNOs between NOAA-19 and NPP Satellite Orbit:

Table of predicted SNOs for the next 14.0 days since TLE Epoch: 1/28/2014
Index Date (NOAA-19) Time (NOAA-19) Lat,Lon (NOAA-19) SZA (NOAA-19 ) Date (NPP) Time (NPP) Lat,Lon (NPP) SZA (NPP ) Distance(km) Time Diff (sec)
1 02/08/2014 05:03:56 80.99, 50.06 100.03 02/08/2014 05:04:56 80.99, 50.13 99.99 1.25 60
2 02/08/2014 05:54:55 -80.99,-142.72 79.98 02/08/2014 05:55:41 -80.99,-142.54 80.03 3.19 46
3 02/08/2014 06:45:58 80.97, 25.29 99.90 02/08/2014 06:46:25 80.98, 25.12 99.91 3.02 27
4 02/08/2014 07:36:57 -80.97,-167.49 80.11 02/08/2014 07:37:10 -80.98,-167.55 80.11 1.11 13
5 02/08/2014 08:28:01 80.96, 0.15 99.82 02/08/2014 08:27:54 80.96, 0.11 99.83 0.69 7
6 02/08/2014
